Volver al catálogo

THORAD AGENA D DEB

ActivoLEO
NORAD 4209·DEBRIS·🇺🇸 United States

Lanzado Sep 30, 1969 desde Vandenberg Space Force Base

Loading…

Próximos Pases (próximas 24 horas)

TLE

ActualizadoSource: Space-Track

Época: Sep 14, 2026, 15:02 UTC

1  4209U 69082BY  26257.62684500 -.00000061  00000-0 -40063-5 0  9990
2  4209  70.0347  16.1628 0041270 203.4466 156.4765 14.05074007916526

Sigue THORAD AGENA D DEB en tiempo real con AllMySat

Download on the App Store